[[{"header":{"parameterUnit":"m.s-1","parameterCategory":1,"la1":30.2992,"la2":30.254,"lo1":-89.0895,"lo2":-89.0443,"dy":0.0025,"dx":0.0025,"nx":19,"ny":19,"refTime":"2026-04-04T09:00:00:Z","depth":0,"parameterNumber":2,"parameterNumberName":"U-component_of_WINDS"},"data":[0,0,0,-1.5755,-1.5758,-1.5901,-1.5902,-1.6082,-1.6083,0,0,0,0,0,0,0,0,0,0,0,-1.5708,-1.5709,-1.5755,-1.5758,-1.5901,-1.5902,-1.6082,-1.6083,0,0,0,0,0,0,0,0,0,0,0,-1.5707,-1.5709,-1.571,-1.5759,-1.5901,-1.5902,-1.6081,-1.5975,0,0,0,0,0,0,0,0,0,0,-1.5836,-1.5788,-1.5708,-1.571,-1.5759,-1.5901,-1.5902,-1.597,-1.5982,-1.6015,0,-1.6041,0,-1.6065,-1.6095,-1.6096,0,0,0,-1.5762,-1.5778,-1.5821,-1.571,-1.5761,-1.5901,-1.5838,-1.5976,-1.599,-1.603,-1.6044,-1.605,-1.6068,-1.6096,-1.6097,-1.6271,-1.6272,0,0,-1.5754,-1.5732,-1.5812,-1.5829,-1.5804,-1.5833,-1.5842,-1.5984,-1.5998,-1.6044,-1.6055,-1.6071,-1.6097,-1.6099,-1.627,-1.6271,0,0,0,-1.5729,-1.5726,-1.5765,-1.5821,-1.5847,-1.5837,-1.5848,-1.5992,-1.6007,-1.6057,-1.6073,-1.6098,-1.61,-1.627,-1.6271,-1.6279,0,0,0,-1.5724,-1.5711,-1.5762,-1.5749,-1.5845,-1.5921,-1.5852,-1.5997,-1.6014,-1.6072,-1.6098,-1.6102,-1.6269,-1.627,-1.6277,-1.6287,0,0,0,-1.57,-1.5708,-1.5727,-1.5748,-1.5808,-1.5919,-1.5942,-1.6001,-1.6023,-1.6096,-1.6103,-1.6269,-1.627,-1.6276,-1.6284,-1.6326,0,0,0,-1.5669,-1.5733,-1.5727,-1.5806,-1.5807,-1.5923,-1.5941,-1.6029,-1.6092,-1.6099,-1.6269,-1.6271,-1.6275,-1.6283,-1.6324,-1.6357,-1.6368,0,0,-1.5738,-1.5741,-1.5789,-1.5788,-1.5898,-1.5903,-1.6016,-1.6096,-1.6125,-1.6221,-1.6226,-1.6278,-1.6284,-1.6326,-1.644,-1.6448,0,0,0,-1.5803,-1.5838,-1.5872,-1.593,-1.5992,-1.6047,-1.6112,-1.6142,-1.6225,-1.6169,-1.6305,-1.631,-1.6335,-1.6352,-1.6359,-1.6383,-1.6277,-1.6277,-1.6277,-1.5869,-1.5901,-1.5983,-1.6033,-1.609,-1.6157,-1.6207,-1.6259,-1.6275,-1.6307,-1.6336,-1.6401,-1.642,-1.6425,-1.6449,-1.6356,-1.6356,-1.6356,-1.6356,-1.5973,-1.6027,-1.6048,-1.6135,-1.617,-1.6245,-1.6313,-1.6322,-1.6399,-1.6382,-1.6406,-1.6384,-1.6434,-1.6457,-1.6357,-1.6357,-1.6357,-1.6357,-1.6357,-1.6019,-1.605,-1.6085,-1.6173,-1.6239,-1.6289,-1.6361,-1.639,-1.6419,-1.6443,-1.6477,-1.6477,-1.6481,-1.6457,-1.6457,-1.6458,-1.6458,-1.6458,-1.6458,-1.6052,-1.6091,-1.6147,-1.6219,-1.6261,-1.6321,-1.639,-1.6434,-1.6489,-1.6506,-1.6506,-1.652,-1.6432,-1.6409,-1.6462,-1.6461,-1.6461,-1.646,-1.646,-1.6145,-1.6129,-1.6215,-1.6257,-1.6346,-1.6409,-1.6447,-1.6533,-1.6573,-1.6608,-1.6618,-1.6548,-1.6554,-1.6548,-1.653,-1.661,-1.661,-1.661,-1.661,-1.6184,-1.6189,-1.6285,-1.635,-1.6419,-1.6461,-1.6561,-1.6617,-1.6672,-1.67,-1.6693,-1.6671,-1.6664,-1.6674,-1.6666,-1.6649,-1.6758,-1.6758,-1.6758,-1.6243,-1.6257,-1.6334,-1.6386,-1.6458,-1.652,-1.6615,-1.6692,-1.6752,-1.6765,-1.6722,-1.6716,-1.6681,-1.6668,-1.6678,-1.6665,-1.6634,0,0]},{"header":{"parameterUnit":"m.s-1","parameterCategory":1,"la1":30.2992,"la2":30.254,"lo1":-89.0895,"lo2":-89.0443,"dy":0.0025,"dx":0.0025,"nx":19,"ny":19,"refTime":"2026-04-04T09:00:00:Z","depth":0,"parameterNumber":3,"parameterNumberName":"V-component_of_WINDS"},"data":[0,0,0,2.9477,2.9479,2.9553,2.9554,2.9648,2.9648,0,0,0,0,0,0,0,0,0,0,0,2.9449,2.945,2.9477,2.9479,2.9553,2.9554,2.9647,2.9648,0,0,0,0,0,0,0,0,0,0,0,2.9449,2.945,2.945,2.9479,2.9553,2.9554,2.9647,2.9593,0,0,0,0,0,0,0,0,0,0,2.9521,2.9488,2.9449,2.945,2.948,2.9553,2.9554,2.959,2.9596,2.9612,0,2.962,0,2.9635,2.9654,2.9654,0,0,0,2.9484,2.9483,2.9508,2.945,2.948,2.9553,2.9521,2.9594,2.96,2.9619,2.9621,2.9625,2.9637,2.9655,2.9655,2.9719,2.9719,0,0,2.948,2.946,2.9503,2.9512,2.9495,2.9519,2.9524,2.9598,2.96,2.9621,2.9627,2.9638,2.9655,2.9656,2.9719,2.9719,0,0,0,2.9465,2.9457,2.9481,2.9508,2.9521,2.9521,2.9526,2.9596,2.9606,2.9628,2.9639,2.9656,2.9657,2.9719,2.9719,2.97,0,0,0,2.9463,2.9448,2.9479,2.9467,2.952,2.9559,2.9523,2.96,2.9609,2.9639,2.9656,2.9658,2.9719,2.9719,2.9701,2.9695,0,0,0,2.9447,2.9446,2.9455,2.9466,2.9497,2.9558,2.9572,2.9603,2.9616,2.9654,2.9658,2.9718,2.9719,2.9701,2.9696,2.9707,0,0,0,2.9425,2.9437,2.9454,2.9474,2.9496,2.9545,2.9571,2.9609,2.964,2.9656,2.9719,2.9719,2.9701,2.9696,2.9707,2.9712,2.9712,0,0,2.943,2.9437,2.9451,2.9468,2.9508,2.9535,2.9575,2.9623,2.9647,2.9695,2.9697,2.9701,2.9696,2.9707,2.9719,2.9719,0,0,0,2.9446,2.9455,2.947,2.9497,2.9533,2.9566,2.961,2.9629,2.967,2.9666,2.9708,2.9706,2.9714,2.9717,2.9717,2.9726,2.9719,2.9719,2.9719,2.9424,2.9452,2.9478,2.9516,2.9543,2.9591,2.9617,2.9651,2.9673,2.9683,2.9697,2.97,2.9704,2.9704,2.9713,2.9702,2.9702,2.9702,2.9702,2.9434,2.9453,2.9483,2.9518,2.9551,2.9583,2.9632,2.9647,2.9684,2.9691,2.97,2.9704,2.9702,2.9712,2.9701,2.9701,2.9701,2.9701,2.9702,2.9423,2.9437,2.9459,2.9503,2.9536,2.9578,2.9613,2.9642,2.9671,2.9679,2.9698,2.9699,2.9704,2.9686,2.9686,2.9686,2.9686,2.9686,2.9686,2.9401,2.9427,2.945,2.9492,2.9516,2.9551,2.9603,2.9629,2.9665,2.9685,2.9685,2.9708,2.9696,2.9692,2.9687,2.9686,2.9686,2.9686,2.9686,2.94,2.9406,2.9441,2.9465,2.952,2.9553,2.9591,2.9642,2.9669,2.9686,2.9709,2.9695,2.9706,2.9706,2.9703,2.9701,2.9701,2.9701,2.9701,2.939,2.9399,2.9443,2.948,2.9519,2.9559,2.9605,2.9648,2.9695,2.9714,2.972,2.9719,2.9718,2.973,2.973,2.9728,2.9731,2.9731,2.9731,2.9392,2.9406,2.9436,2.9478,2.9525,2.9566,2.9611,2.9657,2.9712,2.9733,2.9731,2.973,2.9729,2.9727,2.9746,2.9745,2.9742,0,0]}]]